TimeEET,TemperatureF,Dew PointF,Humidity,Sea Level PressureIn,VisibilityMPH,Wind Direction,Wind SpeedMPH,Gust SpeedMPH,PrecipitationIn,Events,Conditions,WindDirDegrees,DateUTC
12:00 AM,78.8,44.6,30,29.92,-9999.0,North,9.2,-,N/A,,Clear,10,2013-10-20 22:00:00
1:00 AM,77.0,42.8,29,29.92,-9999.0,North,9.2,-,N/A,,Clear,350,2013-10-20 23:00:00
2:00 AM,75,41,19,29.88,6,North,9.2,,,,,350,2013-10-21 00:00:00
2:00 AM,75.2,41.0,29,29.89,-9999.0,North,9.2,-,N/A,,Clear,350,2013-10-21 00:00:00
3:00 AM,73.4,41.0,31,29.89,-9999.0,North,8.1,-,N/A,,Clear,360,2013-10-21 01:00:00
4:00 AM,73.4,42.8,33,29.89,-9999.0,North,6.9,-,N/A,,Clear,350,2013-10-21 02:00:00
5:00 AM,71.6,42.8,35,29.89,-9999.0,North,6.9,-,N/A,,Clear,360,2013-10-21 03:00:00
6:00 AM,69.8,41.0,35,29.89,-9999.0,North,6.9,-,N/A,,Clear,350,2013-10-21 04:00:00
7:00 AM,71.6,41.0,33,29.89,-9999.0,North,6.9,-,N/A,,Clear,360,2013-10-21 05:00:00
8:00 AM,76,44,21,29.91,6,NNE,6.9,,,,Clear,20,2013-10-21 06:00:00
8:00 AM,75.2,44.6,34,29.92,-9999.0,NNE,6.9,-,N/A,,Clear,20,2013-10-21 06:00:00
9:00 AM,80.6,44.6,28,29.92,-9999.0,North,6.9,-,N/A,,Clear,360,2013-10-21 07:00:00
10:00 AM,84.2,41.0,22,29.92,-9999.0,North,5.8,-,N/A,,Clear,360,2013-10-21 08:00:00
11:00 AM,89.6,44.6,21,29.92,-9999.0,North,5.8,-,N/A,,Clear,350,2013-10-21 09:00:00
12:00 PM,93.2,41.0,16,29.89,-9999.0,North,5.8,-,N/A,,Clear,350,2013-10-21 10:00:00
1:00 PM,96.8,42.8,16,29.86,-9999.0,North,6.9,-,N/A,,Clear,350,2013-10-21 11:00:00
2:00 PM,99,41,7,29.79,6,North,8.1,,,,Clear,350,2013-10-21 12:00:00
2:00 PM,98.6,41.0,14,29.83,-9999.0,North,8.1,-,N/A,,Clear,350,2013-10-21 12:00:00
3:00 PM,100.4,42.8,14,29.83,-9999.0,North,8.1,-,N/A,,Clear,10,2013-10-21 13:00:00
4:00 PM,98.6,39.2,13,29.83,-9999.0,North,8.1,-,N/A,,Clear,350,2013-10-21 14:00:00
5:00 PM,96.8,37.4,13,29.83,-9999.0,North,8.1,-,N/A,,Clear,350,2013-10-21 15:00:00
6:00 PM,93.2,41.0,16,29.83,-9999.0,NNW,8.1,-,N/A,,Clear,340,2013-10-21 16:00:00
7:00 PM,89.6,42.8,20,29.86,-9999.0,North,9.2,-,N/A,,Clear,350,2013-10-21 17:00:00
8:00 PM,88,42,11,29.84,6,North,10.4,,,,,350,2013-10-21 18:00:00
8:00 PM,87.8,41.0,19,29.86,-9999.0,North,10.4,-,N/A,,Clear,350,2013-10-21 18:00:00
9:00 PM,86.0,41.0,20,29.89,-9999.0,North,10.4,-,N/A,,Clear,360,2013-10-21 19:00:00
10:00 PM,84.2,41.0,22,29.89,-9999.0,North,9.2,-,N/A,,Clear,360,2013-10-21 20:00:00
11:00 PM,80.6,42.8,26,29.89,-9999.0,North,6.9,-,N/A,,Clear,360,2013-10-21 21:00:00